PulseSat

PulseSat

MOLNIYA 1-36

Last updated on Dec. 8, 2018, 12:08 a.m. UTC

1 09880U 77021A   18340.84374638 -.00001321  00000-0 -16873-3 0  9998
2 09880  61.7946 114.6221 7379361 275.6487  12.3344  2.00771908203604
UTC
Height (km)
Latitude
Longitude
Inclination
Orbital Period

Next 30 passes for location: Hong Kong

Rise time Rise Azimuth (degrees) Set time Set Azimuth (degrees) Duration Max altitude (degrees)

No matching passes for this satellites

PulseSat

PulseSat is the new satellites software and hardware trackering solution by Pulsely.
Satellite Two Line Element Set source: US Air Force Space Command

Download PulseSat for iOS
© 2017 Pulsely Limited